Temp
22 24 25 26 30 33 31 31 32 30 31 31 31 31 30 29 29 26 26 25 25 24 21 21 21 21 21 21 21 21 21 21 22 21 21 21 21 21 21 21 22 21 21 21 21 21 21 21 21
25 25 26 29 32 33 30 32 31 31 31 31 30 30 30 27 28 26 26 25 24 24 24 23 21 21 21 21 21 21 21 22 22 21 21 21 21 21 21 21 21 21 21 21 21 21 21 21 21
25 26 30 32 32 31 30 31 31 30 31 31 29 30 29 27 28 26 25 25 24 24 24 22 21 20 21 21 21 21 22 22 21 21 21 21 21 21 21 21 21 21 21 21 21 21 21 21 21
27 29 30 32 31 30 31 32 31 30 30 31 30 28 28 27 27 26 25 25 24 25 24 21 21 20 21 21 22 21 22 22 21 21 21 21 21 21 21 21 21 21 21 21 21 21 21 21 21
27 30 31 31 30 30 32 32 32 31 30 30 30 28 27 26 26 25 25 26 26 25 24 22 21 21 21 21 22 21 20 21 21 21 21 21 21 21 21 21 21 21 21 21 22 21 21 21 21
30 31 30 31 29 29 30 31 32 31 30 29 29 29 26 26 26 26 26 26 26 25 25 22 21 21 21 21 21 21 21 21 21 21 21 22 22 21 22 21 21 21 21 21 21 21 22 22 22
30 30 30 31 29 29 29 30 31 31 31 30 30 29 26 27 26 26 26 26 26 25 25 24 22 21 21 22 21 21 20 20 21 21 22 21 21 21 21 21 21 21 21 21 22 22 22 22 22
28 30 29 30 28 27 28 29 29 31 30 31 31 29 26 27 25 26 25 25 25 26 25 25 25 24 21 22 20 19 20 20 21 21 21 21 21 21 21 22 21 21 21 21 22 23 23 23 23
30 31 28 28 27 25 28 29 30 31 31 31 30 31 28 26 25 26 25 25 25 25 25 25 25 24 22 21 20 20 20 21 21 21 22 23 24 24 24 23 21 21 22 23 23 23 24 24 24
31 29 30 30 27 24 26 29 29 31 31 29 29 29 27 26 26 27 27 27 26 25 25 24 25 24 24 25 21 21 20 21 21 21 22 24 24 24 24 22 21 22 23 23 24 24 24 25 27
30 29 29 28 27 27 27 27 29 31 30 31 29 28 28 27 27 28 28 28 27 26 25 25 24 24 24 24 24 23 22 22 22 23 24 23 24 24 25 24 24 24 24 26 25 25 27 26 27
30 29 29 28 26 27 26 26 28 30 30 31 31 30 29 29 28 28 28 27 26 25 25 24 24 23 24 24 25 24 24 24 24 23 23 23 24 24 25 26 25 25 26 25 26 27 26 26 26
30 29 29 28 27 23 24 23 28 29 30 31 31 30 30 30 29 28 28 27 26 26 25 25 24 23 23 23 24 24 24 25 24 24 23 24 25 25 25 24 25 25 26 26 26 26 27 27 27
30 29 29 28 27 23 23 23 27 29 31 30 30 30 30 30 29 28 27 27 26 26 25 25 24 23 23 23 23 24 25 24 25 25 24 23 25 24 25 26 26 26 26 26 27 26 27 28 28
30 29 29 28 27 26 26 26 26 29 30 30 30 30 30 30 29 28 27 27 26 26 25 24 24 23 22 22 23 24 25 25 25 25 24 24 24 24 25 26 26 26 25 26 26 27 28 29 29
31 31 30 29 28 26 27 27 26 24 26 30 31 30 30 30 29 28 28 28 27 26 25 24 25 24 23 23 23 23 25 25 25 25 25 24 24 24 25 26 26 25 26 27 27 28 29 29 29
32 30 31 29 29 29 27 26 26 26 28 30 31 31 30 30 29 28 28 27 27 25 24 24 24 24 24 22 23 23 24 25 25 25 25 24 24 24 25 26 26 25 27 27 28 28 28 29 29
31 31 32 31 30 29 29 27 27 26 27 29 29 31 31 30 30 29 28 27 26 24 24 24 24 23 23 23 22 24 24 25 25 25 25 24 24 24 24 25 25 25 27 27 27 26 27 28 29
31 32 32 31 31 30 30 30 29 25 28 26 29 31 31 31 31 30 28 28 27 25 25 23 23 23 23 23 24 24 25 25 25 25 24 23 24 24 24 25 25 25 26 26 26 27 26 28 27
33 32 32 31 30 30 31 31 31 29 27 27 27 28 28 31 31 30 29 28 28 26 25 24 23 22 22 24 24 25 25 26 26 25 24 24 24 23 24 23 25 24 26 25 25 26 28 28 27
33 33 32 32 31 31 31 31 31 31 30 30 30 29 29 28 30 31 29 29 28 27 25 24 23 23 23 24 23 23 23 24 24 25 25 24 24 24 23 23 23 23 25 27 25 26 26 29 27
33 34 33 31 31 31 32 29 31 31 30 30 31 31 30 29 28 24 30 29 29 27 26 24 23 23 23 23 24 24 25 26 26 26 26 25 24 24 24 23 23 23 25 24 26 26 25 26 29
33 34 33 33 33 33 32 33 32 31 31 31 31 32 32 32 30 28 29 30 29 28 27 25 23 23 23 23 24 23 24 26 26 26 26 25 24 24 24 24 23 23 24 24 24 25 25 26 27
35 33 33 33 34 32 33 33 32 33 33 32 31 32 31 32 30 29 28 28 28 28 27 26 24 23 23 23 22 23 24 24 26 26 26 26 26 25 24 24 23 23 24 24 24 24 24 25 25
33 33 32 31 32 32 33 33 33 33 32 32 31 30 30 30 31 30 30 28 29 28 27 26 24 23 23 23 23 23 23 23 24 24 26 27 27 26 26 24 24 24 23 24 24 23 24 25 26
33 35 33 30 31 33 32 32 33 34 32 31 30 29 29 29 30 30 28 28 28 28 27 27 25 24 23 23 23 23 23 24 24 25 26 27 27 27 26 24 24 24 24 24 23 24 25 25 25
34 33 35 33 34 32 34 33 34 32 31 31 31 29 29 29 29 30 29 29 28 27 27 27 26 25 24 24 23 23 23 24 25 25 25 26 26 27 26 25 24 24 24 24 24 25 25 25 25
34 35 33 33 30 31 32 32 32 33 32 31 30 30 30 28 28 29 29 29 28 27 27 27 26 25 25 25 24 24 24 24 24 24 23 25 26 25 25 25 24 24 24 24 24 25 25 24 25
33 33 33 34 33 32 32 33 34 33 32 31 31 29 29 29 28 28 28 28 27 28 26 26 25 26 25 25 25 25 24 24 24 24 24 24 24 25 23 24 24 24 24 24 24 24 25 24 24
34 34 34 33 32 33 32 33 32 31 31 31 29 28 28 28 28 28 27 26 26 27 27 24 25 26 26 26 25 25 25 24 25 24 24 24 24 24 24 24 24 24 24 24 24 24 25 25 25
Height
781 782 782 779 780 762 783 787 768 782 782 774 776 780 786 790 795 814 807 811 814 819 823 825 826 827 828 829 830 832 833 833 835 835 834 836 837 837 838 838 838 840 841 841 842 843 844 844 846
781 781 780 771 774 778 796 773 781 778 776 774 779 782 786 802 796 804 809 813 815 818 822 825 827 829 830 832 833 835 835 835 836 837 837 838 839 839 840 841 841 843 843 844 844 846 848 849 849
781 780 773 769 770 785 795 778 780 780 777 779 787 784 789 804 803 806 811 814 817 819 822 826 828 830 832 833 834 836 836 837 838 839 840 841 841 842 843 843 843 846 846 847 847 849 851 851 851
779 775 770 775 787 785 777 775 777 781 779 779 783 798 799 803 805 809 814 817 819 822 824 828 829 832 833 834 835 837 838 838 839 841 842 842 843 844 846 845 846 848 849 849 850 851 853 853 852
777 771 776 783 788 783 773 772 772 780 783 786 783 798 803 809 810 814 816 818 820 822 826 830 832 833 833 836 837 838 840 840 840 843 844 844 846 845 848 847 848 850 851 850 853 854 854 854 854
774 767 784 788 789 786 779 777 774 780 784 788 791 796 808 811 813 816 818 820 822 824 827 832 834 835 836 838 840 840 841 844 845 846 846 847 848 847 849 849 851 853 853 854 855 856 856 856 856
772 776 786 777 790 791 786 778 780 781 784 788 788 800 810 810 814 817 820 822 824 826 829 833 836 837 839 840 842 843 844 845 847 847 848 847 848 850 851 852 854 856 856 857 858 857 857 859 858
775 774 788 783 794 799 787 784 784 779 790 785 786 799 812 809 816 818 822 825 826 827 830 832 835 838 840 841 844 844 846 846 848 849 847 849 851 851 854 854 856 858 858 859 859 859 860 860 860
770 778 792 792 794 803 788 786 780 777 785 785 790 786 799 810 816 819 822 825 829 831 832 835 836 840 843 846 845 848 848 848 849 850 851 852 853 855 856 856 857 858 859 860 861 861 861 861 862
771 783 781 777 787 800 794 784 785 784 788 794 796 797 805 812 815 817 820 822 827 832 834 838 838 840 842 843 848 850 849 851 852 852 854 855 855 855 857 858 859 859 861 861 862 862 862 861 863
772 784 778 782 786 786 792 792 786 785 793 788 797 800 806 811 813 815 818 821 825 831 835 837 840 842 843 845 846 848 851 854 855 856 857 857 857 857 858 860 861 862 863 863 863 863 863 864 863
779 779 777 782 789 789 796 795 792 789 790 784 789 798 804 808 811 814 817 822 827 831 835 839 841 843 844 846 846 848 850 852 854 856 857 858 858 859 859 860 862 863 864 864 864 863 864 864 864
777 781 780 782 788 800 799 807 795 792 787 786 791 798 802 806 810 813 818 823 827 831 834 838 841 844 845 847 848 849 851 852 854 856 857 858 858 859 860 862 862 863 864 864 864 864 864 864 864
773 778 783 784 790 801 807 807 798 789 786 789 793 798 801 805 810 814 818 822 826 830 834 837 841 844 846 847 849 850 851 852 853 856 858 859 858 860 861 862 862 863 864 864 864 864 864 864 863
774 787 784 787 790 798 797 806 803 789 788 791 794 797 801 805 810 814 818 822 825 829 833 837 841 844 846 848 849 851 852 853 855 857 859 859 860 861 862 862 862 864 865 865 866 865 865 864 864
777 777 792 790 787 797 797 809 797 800 800 793 793 797 801 804 808 813 817 820 824 828 832 836 839 843 846 848 850 852 853 854 856 857 858 859 861 862 862 862 863 865 865 865 865 865 864 864 865
777 794 788 794 783 789 797 806 797 797 798 791 792 795 800 803 807 811 816 819 823 829 832 835 839 842 845 848 850 852 854 855 856 857 858 859 861 862 863 863 864 865 865 865 865 865 866 865 865
786 785 783 786 785 786 792 801 796 798 798 793 795 791 796 800 803 809 814 818 823 827 831 835 838 841 845 847 849 851 853 854 856 856 858 860 861 862 863 864 864 865 865 865 866 866 866 865 865
778 779 784 780 777 785 787 786 790 799 795 801 795 789 792 795 798 805 811 815 820 825 829 833 837 839 843 846 848 849 851 852 854 856 858 859 860 861 863 864 865 865 865 866 866 866 866 866 866
771 780 782 781 778 784 783 785 779 785 793 793 796 796 795 793 794 801 806 811 816 821 827 831 834 838 841 844 846 848 849 851 853 855 857 859 860 861 862 863 865 865 865 866 866 866 864 865 866
773 778 780 784 779 777 781 784 782 778 780 783 783 788 791 795 796 796 803 807 811 817 823 827 831 835 838 841 845 848 850 851 852 853 855 857 858 860 861 863 863 864 864 864 865 866 866 861 866
775 758 771 783 784 790 770 807 779 774 782 782 779 780 783 790 795 801 798 804 806 812 818 824 829 832 836 839 841 844 846 846 848 850 852 855 857 858 860 861 862 863 863 864 864 864 865 865 862
772 761 769 773 775 775 777 781 778 771 777 775 774 771 773 776 783 794 796 796 802 808 813 819 824 829 832 835 839 842 844 845 845 847 850 854 856 857 858 859 860 861 862 862 862 863 863 864 863
754 767 770 770 765 787 774 775 779 771 768 767 766 767 769 772 779 786 791 796 799 803 809 814 820 825 829 832 836 839 841 843 842 845 848 851 853 855 856 857 858 860 860 860 861 862 862 863 863
763 769 789 796 788 789 769 780 768 761 761 763 767 769 771 771 773 778 783 788 792 798 804 809 816 820 824 828 832 835 839 842 843 846 847 847 849 851 853 856 857 858 858 859 860 860 861 861 862
762 756 773 808 794 778 772 789 768 753 758 762 765 768 771 771 770 773 780 784 788 793 799 803 810 815 819 823 827 831 835 838 841 843 842 844 845 848 851 854 855 856 857 858 859 859 859 860 861
758 772 742 766 761 780 765 763 752 757 762 762 764 768 768 769 768 769 774 779 785 790 794 798 804 810 814 818 822 827 830 834 836 838 841 843 844 845 849 851 853 854 855 857 858 858 858 859 859
749 739 770 763 797 798 774 778 773 760 762 760 764 765 766 769 770 769 771 775 780 788 791 795 800 805 809 814 817 821 825 830 833 836 839 840 841 844 846 848 850 851 853 855 856 855 856 857 857
757 758 757 751 759 780 785 768 738 749 751 759 761 765 766 767 769 770 772 773 777 780 788 791 796 799 804 808 813 816 820 824 828 831 835 837 840 842 844 846 847 848 849 851 853 854 854 855 856
738 743 746 766 774 764 770 767 744 749 752 755 763 766 767 768 768 769 770 773 775 776 780 787 789 795 799 803 808 813 816 820 823 826 829 833 835 837 840 842 843 846 846 848 850 851 851 852 852
Wind_Speed
6 5 3 4 5 4 7 6 7 9 7 3 7 4 11 11 6 5 13 9 16 16 13 10 11 11 11 12 12 11 11 11 12 13 14 16 16 17 17 16 18 18 17 17 18 17 16 17 16
6 4 5 3 6 7 6 5 9 5 8 9 9 5 6 12 10 14 12 13 13 15 14 12 12 11 12 13 12 12 12 12 12 13 14 15 16 17 17 17 17 17 17 16 18 17 16 15 15
6 4 4 4 2 7 8 8 11 11 9 8 4 8 5 8 12 5 18 15 15 13 12 12 14 13 12 14 13 12 11 12 11 13 14 15 17 17 17 17 19 16 17 18 18 17 15 15 15
4 4 4 5 9 6 10 11 13 10 8 3 8 9 9 12 5 12 16 15 15 13 13 12 13 14 13 13 12 14 13 13 12 12 13 14 16 16 16 17 18 18 17 18 18 15 12 10 10
4 3 3 5 7 7 11 10 7 9 6 7 3 9 11 8 14 18 16 15 15 15 14 14 14 16 14 13 16 15 11 12 11 10 13 14 15 16 16 18 18 16 15 17 16 13 11 9 10
4 3 4 7 10 8 8 4 7 10 9 9 14 15 8 11 17 16 15 14 13 15 15 15 15 17 13 13 12 11 13 13 13 13 16 16 15 16 17 18 16 15 17 15 14 13 12 12 12
6 3 2 4 11 10 9 5 2 10 6 11 12 10 8 15 17 17 16 13 13 14 16 16 15 12 12 14 14 13 15 15 14 18 18 16 15 15 16 16 15 15 14 14 13 13 14 12 11
1 2 3 4 8 5 6 5 3 5 9 11 9 8 11 18 18 17 15 14 12 12 14 15 13 12 12 13 15 16 14 12 17 12 15 15 15 15 13 15 14 13 12 11 11 11 11 11 11
1 3 3 1 6 6 5 7 6 8 11 7 4 8 22 24 20 17 16 15 14 11 11 11 11 11 11 15 17 19 15 15 13 12 14 11 12 12 11 12 13 12 12 10 9 8 8 9 10
3 2 4 3 5 6 5 5 7 8 11 10 10 17 24 23 20 18 17 16 15 13 11 9 9 10 10 12 13 18 17 16 16 13 12 11 11 11 12 11 11 11 10 8 7 7 7 7 7
2 3 3 6 7 9 5 6 3 5 8 7 12 19 20 21 18 16 14 15 15 13 12 11 8 7 7 9 10 13 13 13 14 13 12 12 12 12 11 10 10 9 9 7 6 4 5 5 5
0 4 2 9 9 8 5 2 5 1 6 3 12 18 19 17 16 16 14 14 13 14 12 10 9 8 6 6 7 9 12 12 12 13 12 11 13 11 10 9 9 9 7 6 4 5 3 2 2
4 6 7 7 9 7 7 4 2 3 3 8 16 16 16 14 14 14 14 13 14 14 13 12 9 9 7 5 6 9 12 12 12 12 10 10 10 9 8 7 7 6 6 5 3 3 4 3 3
4 8 10 8 8 5 4 2 4 3 9 12 16 15 14 13 14 13 13 14 14 14 13 11 10 9 7 6 7 8 8 10 10 9 8 7 8 6 5 5 6 6 5 4 4 4 4 4 5
11 9 8 6 7 7 11 6 6 4 9 14 15 14 13 13 14 14 14 14 14 14 13 12 11 10 8 9 9 8 8 8 9 10 9 7 6 5 5 6 7 6 5 4 4 3 3 5 6
3 5 3 7 8 6 8 4 6 4 2 12 15 13 13 13 15 13 13 13 13 13 14 12 11 10 10 11 10 8 7 8 9 9 8 6 5 5 5 5 6 5 5 4 3 1 1 2 3
5 2 5 7 6 9 9 6 9 9 12 12 14 14 13 13 13 14 13 12 13 13 13 14 13 11 10 11 10 8 8 8 8 8 7 7 5 3 4 4 4 4 3 3 0 2 2 3 3
2 7 3 2 9 9 9 5 8 8 10 8 10 14 13 13 14 15 14 13 13 15 14 13 14 12 11 11 9 8 8 9 8 7 6 6 5 3 2 2 2 1 1 1 1 1 1 2 3
4 3 4 4 4 6 5 6 10 11 12 14 14 14 15 14 15 17 16 15 14 15 16 16 16 15 14 12 12 10 10 11 9 8 7 5 5 3 1 1 0 1 1 1 0 1 3 3 2
6 2 5 4 4 5 2 6 9 13 15 15 16 15 10 13 14 15 16 17 17 17 17 19 17 17 16 13 12 10 11 11 11 9 8 7 5 5 3 2 2 3 3 2 2 2 1 2 2
10 6 2 7 4 7 4 7 9 11 10 15 16 16 13 14 15 13 16 17 18 19 19 20 20 19 18 15 13 10 9 8 12 10 9 9 7 6 5 3 4 4 3 4 3 3 3 2 1
12 4 3 2 7 1 7 1 8 10 12 14 14 15 15 14 13 8 16 19 19 20 20 20 20 20 20 18 16 14 14 13 15 14 11 9 9 7 6 5 4 4 5 4 4 4 3 4 5
10 3 3 6 10 6 9 6 8 5 9 14 15 15 16 16 14 19 21 20 19 18 20 20 20 21 21 22 19 16 14 15 14 13 10 11 10 9 7 7 6 5 4 4 5 5 3 5 7
10 6 4 7 9 9 9 6 8 6 1 5 4 10 12 14 17 17 23 20 16 18 20 20 21 22 21 22 21 19 16 16 16 15 14 13 12 11 10 9 9 7 5 5 5 5 5 5 5
14 14 8 8 8 3 3 5 6 5 4 2 3 4 4 9 14 16 16 20 22 22 22 21 22 22 22 22 22 22 20 18 15 13 17 14 13 12 11 11 11 11 9 7 7 7 6 6 6
18 16 9 7 9 5 6 6 2 5 5 3 3 1 2 5 11 14 16 17 23 22 24 23 23 23 22 22 22 21 20 21 18 18 17 17 14 13 9 10 11 11 11 8 8 8 9 8 7
13 11 10 11 5 8 5 5 7 9 7 7 5 2 1 3 3 11 18 22 24 21 24 24 23 23 23 23 22 22 20 22 20 15 16 15 13 12 12 12 12 11 11 12 10 10 10 9 9
10 4 8 9 13 10 6 7 7 9 10 9 5 3 1 1 0 4 12 18 19 22 20 22 22 22 22 22 23 23 22 22 22 19 17 16 15 14 13 13 13 13 12 11 12 13 12 11 11
8 10 8 9 5 9 10 8 4 2 6 10 6 3 2 2 1 2 7 12 20 22 22 23 22 21 21 22 23 22 22 22 22 22 21 19 17 15 14 14 13 15 14 13 14 14 11 11 11
7 9 11 9 12 9 9 8 5 6 5 7 5 1 1 3 4 3 6 10 16 21 22 22 19 20 22 22 21 21 21 21 23 23 23 20 19 17 16 15 12 13 13 13 13 13 14 15 14
Wind_Direction
161 168 191 227 231 220 85 83 93 111 129 61 94 22 73 29 354 60 119 127 136 138 138 131 131 114 112 112 123 128 128 121 120 120 114 114 115 115 116 114 110 113 115 115 110 104 103 100 103
188 197 222 270 240 133 91 92 87 80 94 119 98 122 44 71 73 113 119 126 138 139 143 135 129 123 116 112 112 116 113 111 113 115 119 118 120 117 115 114 114 112 110 111 109 107 101 105 102
195 241 263 277 268 62 104 95 94 103 117 149 113 49 41 84 112 94 122 129 126 130 123 126 129 125 119 121 118 118 115 113 116 122 126 124 120 120 119 120 116 116 116 114 112 111 110 112 102
215 212 220 252 115 87 101 110 117 122 101 113 109 91 90 104 91 124 129 131 124 123 110 121 129 123 127 120 122 117 108 101 109 127 131 128 124 120 122 119 120 120 118 117 113 112 112 110 107
237 243 226 158 113 119 100 97 115 98 92 127 200 115 105 93 116 125 130 131 127 121 118 115 115 128 116 122 107 115 109 102 109 130 129 131 127 125 124 121 121 121 120 111 110 109 104 103 104
230 251 234 178 134 131 111 98 107 91 101 107 122 120 88 124 137 134 132 133 131 123 121 118 117 117 117 114 110 98 105 108 124 125 120 117 118 119 121 121 122 121 115 111 110 105 98 100 101
286 241 243 226 139 145 130 113 3 105 111 117 135 120 115 144 142 139 136 132 133 130 125 129 122 127 122 106 107 108 108 112 124 121 115 112 113 112 115 121 123 121 118 116 112 101 95 98 91
280 275 180 154 166 126 126 118 110 108 86 124 149 157 158 151 152 145 143 137 138 137 127 134 133 125 126 106 108 119 121 126 118 117 109 114 115 112 123 129 124 122 121 117 113 100 94 88 83
246 263 176 167 156 118 123 132 104 104 137 108 44 135 137 149 152 153 149 150 148 147 152 143 136 135 125 124 126 129 131 122 108 114 113 120 119 119 119 133 122 126 124 123 117 107 95 91 76
291 342 45 41 151 131 129 135 100 142 148 140 93 109 137 152 158 163 164 159 157 158 156 149 136 142 135 127 133 128 128 127 126 127 119 124 124 113 125 124 119 127 125 129 122 110 89 86 104
11 23 84 94 100 135 128 119 77 158 176 150 139 142 149 160 164 163 168 160 158 158 154 151 143 138 142 129 142 133 123 120 123 127 130 128 124 122 121 123 120 122 118 134 118 110 111 94 91
171 72 92 126 124 123 104 57 123 150 59 117 143 152 155 165 168 164 163 156 156 157 161 155 147 143 132 138 138 129 129 133 129 128 126 123 123 124 123 121 121 124 126 125 121 113 83 65 74
75 98 104 126 113 81 95 53 78 203 182 138 144 158 161 167 163 162 160 158 162 163 164 162 158 153 143 145 136 130 133 132 131 131 128 123 125 116 117 116 116 118 131 122 118 101 77 67 84
104 107 121 124 122 104 112 206 244 148 149 144 157 165 163 164 163 160 167 166 168 165 164 163 164 158 154 147 141 134 129 130 133 135 138 131 116 111 109 121 115 116 116 117 115 101 80 80 95
133 120 129 134 130 129 168 200 191 112 155 157 167 169 162 169 163 167 170 170 172 171 164 169 170 166 163 159 152 143 148 138 143 144 144 136 114 100 104 106 105 105 107 112 117 102 104 114 113
210 206 135 128 152 151 203 160 134 117 234 172 171 174 173 178 177 173 171 168 168 169 170 173 178 176 169 165 165 158 151 154 150 148 149 141 129 113 102 108 104 104 99 111 124 101 144 153 136
190 72 86 142 190 159 206 122 160 169 204 195 182 180 184 182 184 182 178 175 168 174 175 177 179 182 176 176 170 170 164 165 159 154 155 151 146 122 98 113 113 86 89 90 132 132 279 186 199
111 147 119 97 182 199 188 152 154 183 202 215 206 188 190 193 190 184 193 182 177 175 181 185 181 182 183 182 184 181 182 181 170 165 164 153 161 140 114 107 103 69 78 137 81 24 147 214 206
166 2 28 81 150 207 212 184 175 178 186 212 212 200 197 205 188 194 191 194 189 182 184 190 190 184 183 189 195 198 201 194 190 186 184 177 176 181 179 180 318 325 292 352 323 97 143 158 187
264 213 101 96 142 218 153 209 184 178 195 202 202 215 214 227 197 194 194 198 199 196 196 193 195 192 189 194 200 206 207 201 202 198 194 196 197 204 216 256 284 290 274 267 279 287 182 179 210
245 252 107 346 168 216 248 201 191 196 203 203 216 217 223 197 230 203 205 204 200 199 198 198 196 194 192 192 195 200 202 215 208 204 209 213 216 212 219 243 249 276 270 252 262 261 261 260 194
248 217 236 200 226 216 213 162 170 182 202 210 217 217 212 223 180 252 225 217 206 203 199 199 198 195 198 196 201 209 214 217 214 212 207 211 213 211 205 210 232 250 250 250 244 260 258 251 256
253 352 269 232 228 234 174 252 114 177 209 208 213 217 216 212 207 201 226 221 213 201 200 197 195 198 200 203 203 202 211 216 209 210 198 203 208 213 214 220 222 233 260 229 228 243 259 248 267
228 221 219 210 240 234 146 278 163 155 135 127 191 214 226 229 198 216 221 217 207 201 197 196 194 196 200 201 203 205 212 228 219 203 195 203 212 219 224 222 217 224 231 220 217 219 226 243 248
210 218 206 216 197 233 128 230 87 133 172 167 157 185 219 232 221 220 207 201 206 198 195 193 195 195 195 201 204 213 214 216 226 215 213 211 214 223 222 224 222 225 227 224 229 227 227 226 240
208 224 237 211 222 217 138 240 122 134 157 167 168 194 238 246 234 215 208 207 210 202 199 196 195 196 196 197 203 206 207 210 217 215 219 213 222 219 217 228 227 226 228 228 231 230 232 223 231
171 232 285 280 204 284 263 161 210 171 193 190 194 209 275 339 278 208 219 209 207 203 205 201 198 199 199 200 200 205 205 209 213 225 219 224 223 230 228 230 232 233 234 232 233 239 233 238 238
274 252 220 234 269 244 196 233 270 186 199 183 188 159 64 58 351 222 215 214 206 211 213 206 205 203 204 205 203 207 208 212 219 222 222 231 231 233 237 224 231 236 235 236 241 239 232 236 243
188 219 229 296 294 269 254 242 128 245 178 183 160 140 46 20 50 244 218 226 220 213 207 207 208 206 209 208 210 208 211 214 216 222 227 231 235 241 242 239 241 239 236 238 238 238 251 239 245
273 255 200 228 187 236 300 292 117 121 145 158 149 158 110 350 346 309 239 224 230 222 204 205 206 215 213 211 211 215 214 213 216 218 224 233 237 234 238 240 247 250 247 229 234 245 251 242 246